This demonstration page uses our WeatherBlox Daily Observations layout. Learn more.

Left ArrowRight Arrow

31.84235, -102.49876

Hourly Observations for June 15, 2022

Temp ( °F °C ) Dew Point ( °F °C ) Humidity (%) Winds ( mph kmh ) Pressure ( in mb ) Visibility ( mi km ) Precip ( " mm )
12:53 am 00:53 Clear 86 30 58 14.4 39 39 S 28 44 29.70 1006 10 16 0.00 0.00
1:53 am 01:53 Clear 85 29.4 57 13.9 39 39 S 21 33 29.69 1005 10 16 0.00 0.00
2:53 am 02:53 Clear 83 28.3 58 14.4 43 43 S 18 30 29.69 1006 10 16 0.00 0.00
3:53 am 03:53 Clear 82 27.8 61 16.1 49 49 S 20 31 29.71 1006 10 16 0.00 0.00
4:53 am 04:53 Clear 81 27.2 58 14.4 45 45 S 18 30 29.71 1006 10 16 0.00 0.00
5:53 am 05:53 Clear 80 26.7 58 14.4 47 47 S 16 26 29.73 1007 10 16 0.00 0.00
6:53 am 06:53 Sunny 78 25.6 59 15 52 52 S 20 31 29.76 1008 10 16 0.00 0.00
7:53 am 07:53 Sunny 76 24.4 64 17.8 67 67 S 17 28 29.80 1009 10 16 0.00 0.00
8:53 am 08:53 Sunny 77 25 65 18.3 66 66 S 21 33 29.83 1010 10 16 0.00 0.00
9:53 am 09:53 Sunny 81 27.2 65 18.3 58 58 S 21 33 29.83 1010 10 16 0.00 0.00
10:53 am 10:53 Sunny 85 29.4 63 17.2 48 48 S 23 37 29.81 1010 10 16 0.00 0.00
11:53 am 11:53 Sunny 90 32.2 61 16.1 38 38 S 17 28 29.81 1009 10 16 0.00 0.00
12:53 pm 12:53 Sunny 91 32.8 60 15.6 35 35 S 21 33 29.80 1009 10 16 0.00 0.00
1:53 pm 13:53 Sunny 94 34.4 58 14.4 30 30 SSW 17 28 29.79 1009 10 16 0.00 0.00
2:53 pm 14:53 Sunny 97 36.1 57 13.9 26 26 SSW 18 30 29.77 1008 10 16 0.00 0.00
3:53 pm 15:53 Sunny 97 36.1 56 13.3 25 25 S 15 24 29.76 1008 10 16 0.00 0.00
4:53 pm 16:53 Sunny 98 36.7 56 13.3 24 24 S 14 22 29.74 1007 10 16 0.00 0.00
5:53 pm 17:53 Sunny 97 36.1 55 12.8 24 24 SSE 14 22 29.74 1007 10 16 0.00 0.00
6:53 pm 18:53 Sunny 96 35.6 55 12.8 25 25 S 15 24 29.74 1007 10 16 0.00 0.00
7:53 pm 19:53 Sunny 94 34.4 57 13.9 29 29 SSE 22 35 29.76 1008 10 16 0.00 0.00
8:53 pm 20:53 Sunny 92 33.3 58 14.4 32 32 SSE 17 28 29.78 1009 10 16 0.00 0.00
9:53 pm 21:53 Clear 90 32.2 58 14.4 34 34 S 15 24 29.80 1009 10 16 0.00 0.00
10:53 pm 22:53 Clear 88 31.1 58 14.4 36 36 SSE 20 31 29.82 1010 10 16 0.00 0.00
11:53 pm 23:53 Clear 86 30 57 13.9 37 37 S 21 33 29.84 1011 10 16 0.00 0.00

Powered by AerisWeather